| time (UTC) | temp F | wind direction | speed MPH | gust MPH | rain 1hr in | rain 24hr in | rain mn in | humidity % | barometer mb |
| 20260510225127 | 79 | 270 | 3.0 | 0.0 | 0.00 | 0.01 | 0.00 | 43 | 1014.0 |
| 20260510224654 | 81 | 248 | 3.0 | 0.0 | 0.00 | 0.01 | 0.00 | 42 | 1013.7 |
| 20260510223742 | 81 | 248 | 0.0 | 0.0 | 0.00 | 0.01 | 0.00 | 41 | 1013.8 |
| 20260510223309 | 80 | 270 | 4.0 | 0.0 | 0.00 | 0.01 | 0.00 | 43 | 1013.9 |
| 20260510222836 | 81 | 180 | 0.0 | 0.0 | 0.00 | 0.01 | 0.00 | 40 | 1013.8 |
| 20260510222404 | 80 | 270 | 2.0 | 0.0 | 0.00 | 0.01 | 0.00 | 40 | 1013.9 |
| 20260510221931 | 81 | 248 | 1.0 | 0.0 | 0.00 | 0.01 | 0.00 | 40 | 1014.0 |
| 20260510221458 | 81 | 270 | 2.0 | 0.0 | 0.00 | 0.01 | 0.00 | 40 | 1014.0 |
| 20260510221026 | 80 | 270 | 2.0 | 0.0 | 0.00 | 0.01 | 0.00 | 37 | 1014.1 |
| 20260510220553 | 80 | 315 | 2.0 | 0.0 | 0.00 | 0.01 | 0.00 | 37 | 1014.1 |
| 20260510215641 | 82 | 248 | 1.0 | 0.0 | 0.00 | 0.01 | 0.00 | 37 | 1014.1 |
| 20260510214705 | 83 | 270 | 4.0 | 0.0 | 0.00 | 0.01 | 0.00 | 37 | 1014.0 |
| 20260510213840 | 83 | 338 | 0.0 | 0.0 | 0.00 | 0.01 | 0.00 | 38 | 1014.0 |
| 20260510213627 | 83 | 225 | 2.0 | 0.0 | 0.00 | 0.00 | 0.00 | 37 | 1014.1 |
| 20260510213154 | 84 | 112 | 0.0 | 0.0 | 0.00 | 0.00 | 0.00 | 41 | 1014.0 |
| 20260510212721 | 83 | 158 | 0.0 | 0.0 | 0.00 | 0.00 | 0.00 | 43 | 1014.0 |
| 20260510212249 | 83 | 112 | 3.0 | 0.0 | 0.00 | 0.00 | 0.00 | 41 | 1014.1 |
| 20260510211344 | 84 | 225 | 0.0 | 0.0 | 0.00 | 0.00 | 0.00 | 39 | 1014.0 |
| 20260510210912 | 84 | 270 | 3.0 | 0.0 | 0.00 | 0.00 | 0.00 | 41 | 1014.0 |
| 20260510210439 | 85 | 225 | 0.0 | 0.0 | 0.00 | 0.00 | 0.00 | 40 | 1014.0 |
| 20260510210007 | 83 | 22 | 3.0 | 0.0 | 0.00 | 0.00 | 0.00 | 41 | 1014.0 |
| 20260510205534 | 83 | 112 | 2.0 | 0.0 | 0.00 | 0.00 | 0.00 | 43 | 1014.0 |
| 20260510205102 | 82 | 68 | 1.0 | 0.0 | 0.00 | 0.00 | 0.00 | 43 | 1014.2 |
| 20260510204630 | 81 | 112 | 3.0 | 0.0 | 0.00 | 0.00 | 0.00 | 40 | 1014.2 |
| 20260510204157 | 82 | 158 | 2.0 | 0.0 | 0.00 | 0.00 | 0.00 | 39 | 1014.2 |
| 20260510203725 | 82 | 180 | 0.0 | 0.0 | 0.00 | 0.00 | 0.00 | 39 | 1014.3 |
| 20260510203253 | 83 | 45 | 5.0 | 0.0 | 0.00 | 0.00 | 0.00 | 38 | 1014.4 |
| 20260510202821 | 83 | 270 | 1.0 | 0.0 | 0.00 | 0.00 | 0.00 | 42 | 1014.5 |
| 20260510202348 | 82 | 270 | 3.0 | 0.0 | 0.00 | 0.00 | 0.00 | 42 | 1014.7 |
| 20260510201917 | 81 | 270 | 2.0 | 0.0 | 0.00 | 0.00 | 0.00 | 41 | 1014.7 |
| 20260510201444 | 82 | 315 | 4.0 | 0.0 | 0.00 | 0.00 | 0.00 | 42 | 1014.7 |
| 20260510200952 | 82 | 292 | 1.0 | 0.0 | 0.00 | 0.00 | 0.00 | 43 | 1014.8 |
| 20260510200520 | 81 | 135 | 4.0 | 0.0 | 0.00 | 0.00 | 0.00 | 45 | 1014.8 |
| 20260510200047 | 82 | 292 | 4.0 | 0.0 | 0.00 | 0.00 | 0.00 | 45 | 1014.8 |
| 20260510195615 | 81 | 270 | 3.0 | 0.0 | 0.00 | 0.00 | 0.00 | 44 | 1014.9 |
| 20260510195143 | 82 | 202 | 2.0 | 0.0 | 0.00 | 0.00 | 0.00 | 45 | 1014.8 |
| 20260510194711 | 82 | 0 | 1.0 | 0.0 | 0.00 | 0.00 | 0.00 | 48 | 1014.8 |
| 20260510194238 | 82 | 248 | 3.0 | 0.0 | 0.00 | 0.00 | 0.00 | 46 | 1014.8 |
| 20260510193335 | 79 | 202 | 2.0 | 0.0 | 0.00 | 0.00 | 0.00 | 47 | 1015.0 |
| 20260510192903 | 81 | 248 | 5.0 | 0.0 | 0.00 | 0.00 | 0.00 | 46 | 1015.0 |
| 20260510192431 | 0 | 225 | 4.0 | 0.0 | 0.00 | 0.00 | 0.00 | 49 | |
| 20260510192334 | 0 | 135 | 3.0 | 0.0 | 0.00 | 0.00 | 0.00 | 48 | 1014.8 |
| 20260510191303 | 80 | 248 | 5.0 | 0.0 | 0.00 | 0.00 | 0.00 | 44 | 1015.0 |
| 20260510190959 | 0 | 270 | 4.0 | 0.0 | 0.00 | 0.00 | 0.00 | 45 | 1015.0 |
| 20260510185928 | 81 | 225 | 0.0 | 0.0 | 0.00 | 0.00 | 0.00 | 49 | 1015.0 |
| 20260510185409 | 81 | 112 | 3.0 | 0.0 | 0.00 | 0.00 | 0.00 | 47 | 1015.0 |
| 20260510184938 | 79 | 270 | 4.0 | 0.0 | 0.00 | 0.00 | 0.00 | 47 | 1015.3 |
| 20260510184529 | 80 | 225 | 2.0 | 0.0 | 0.00 | 0.00 | 0.00 | 48 | 1015.3 |
| 20260510184035 | 81 | 248 | 3.0 | 0.0 | 0.00 | 0.00 | 0.00 | 49 | 1015.2 |
| 20260510183134 | 79 | 270 | 5.0 | 0.0 | 0.00 | 0.00 | 0.00 | 46 | 1015.5 |
| 20260510182703 | 79 | 270 | 4.0 | 0.0 | 0.00 | 0.00 | 0.00 | 47 | 1015.6 |
| 20260510182232 | 79 | 45 | 2.0 | 0.0 | 0.00 | 0.00 | 0.00 | 47 | 1015.5 |
| 20260510181801 | 80 | 202 | 2.0 | 0.0 | 0.00 | 0.00 | 0.00 | 53 | 1015.4 |
| 20260510181329 | 79 | 292 | 5.0 | 0.0 | 0.00 | 0.00 | 0.00 | 50 | 1015.6 |
| 20260510180859 | 81 | 270 | 5.0 | 0.0 | 0.00 | 0.00 | 0.00 | 52 | 1015.4 |
| 20260510180428 | 80 | 45 | 5.0 | 0.0 | 0.00 | 0.00 | 0.00 | 55 | 1015.5 |
| 20260510175527 | 81 | 270 | 0.0 | 0.0 | 0.00 | 0.00 | 0.00 | 55 | 1015.6 |
| 20260510175056 | 80 | 68 | 3.0 | 0.0 | 0.00 | 0.00 | 0.00 | 58 | 1015.7 |
| 20260510174649 | 78 | 22 | 0.0 | 0.0 | 0.00 | 0.00 | 0.00 | 59 | 1015.9 |
| 20260510174156 | 79 | 270 | 3.0 | 0.0 | 0.00 | 0.00 | 0.00 | 61 | 1015.9 |
| 20260510173725 | 77 | 248 | 5.0 | 0.0 | 0.00 | 0.00 | 0.00 | 60 | 1016.1 |
| 20260510172823 | 79 | 248 | 4.0 | 0.0 | 0.00 | 0.00 | 0.00 | 57 | 1015.9 |
| 20260510172353 | 80 | 225 | 2.0 | 0.0 | 0.00 | 0.00 | 0.00 | 61 | 1015.9 |
| 20260510172052 | 0 | 112 | 3.0 | 0.0 | 0.00 | 0.00 | 0.00 | 62 | 1016.0 |
| 20260510171452 | 78 | 0 | 1.0 | 0.0 | 0.00 | 0.00 | 0.00 | 65 | 1016.0 |
| 20260510171022 | 76 | 270 | 3.0 | 0.0 | 0.00 | 0.00 | 0.00 | 65 | 1016.1 |
| 20260510170722 | 0 | 292 | 0.0 | 0.0 | 0.00 | 0.00 | 0.00 | 68 | 1016.2 |
| 20260510170122 | 76 | 45 | 3.0 | 0.0 | 0.00 | 0.00 | 0.00 | 71 | 1016.2 |
| 20260510165222 | 76 | 292 | 5.0 | 0.0 | 0.00 | 0.00 | 0.00 | 75 | 1016.3 |
| 20260510164752 | 73 | 338 | 3.0 | 0.0 | 0.00 | 0.00 | 0.00 | 78 | 1016.4 |
| 20260510164323 | 73 | 0 | 4.0 | 0.0 | 0.00 | 0.00 | 0.00 | 79 | 1016.5 |
| 20260510163852 | 74 | 225 | 3.0 | 0.0 | 0.00 | 0.00 | 0.00 | 79 | 1016.4 |
| 20260510163422 | 73 | 90 | 3.0 | 0.0 | 0.00 | 0.00 | 0.00 | 79 | 1016.6 |
| 20260510163002 | 74 | 292 | 4.0 | 0.0 | 0.00 | 0.00 | 0.00 | 78 | 1016.4 |
| 20260510162521 | 73 | 270 | 4.0 | 0.0 | 0.00 | 0.00 | 0.00 | 78 | 1016.7 |
| 20260510162051 | 73 | 270 | 4.0 | 0.0 | 0.00 | 0.00 | 0.00 | 78 | 1016.6 |
| 20260510161621 | 75 | 270 | 3.0 | 0.0 | 0.00 | 0.00 | 0.00 | 77 | 1016.4 |
| 20260510160721 | 74 | 68 | 3.0 | 0.0 | 0.00 | 0.00 | 0.00 | 75 | 1016.4 |
| 20260510160252 | 74 | 270 | 4.0 | 0.0 | 0.00 | 0.00 | 0.00 | 74 | 1016.6 |
| 20260510155822 | 76 | 180 | 2.0 | 0.0 | 0.00 | 0.00 | 0.00 | 77 | 1016.3 |
| 20260510155352 | 74 | 270 | 5.0 | 0.0 | 0.00 | 0.00 | 0.00 | 75 | 1016.2 |
| 20260510154945 | 75 | 22 | 0.0 | 0.0 | 0.00 | 0.00 | 0.00 | 75 | 1016.1 |
| 20260510154452 | 73 | 248 | 4.0 | 0.0 | 0.00 | 0.00 | 0.00 | 77 | 1016.1 |
| 20260510154023 | 75 | 270 | 4.0 | 0.0 | 0.00 | 0.00 | 0.00 | 76 | 1016.0 |
| 20260510153554 | 76 | 68 | 0.0 | 0.0 | 0.00 | 0.00 | 0.00 | 76 | 1016.0 |
| 20260510153124 | 73 | 112 | 3.0 | 0.0 | 0.00 | 0.00 | 0.00 | 78 | 1016.1 |
| 20260510152655 | 73 | 248 | 4.0 | 0.0 | 0.00 | 0.00 | 0.00 | 77 | 1016.0 |
| 20260510152225 | 74 | 112 | 2.0 | 0.0 | 0.00 | 0.00 | 0.00 | 78 | 1016.0 |
| 20260510151326 | 71 | 270 | 4.0 | 0.0 | 0.00 | 0.00 | 0.00 | 79 | 1016.3 |
| 20260510150837 | 73 | 270 | 3.0 | 0.0 | 0.00 | 0.00 | 0.00 | 80 | 1016.0 |
| 20260510150407 | 73 | 292 | 0.0 | 0.0 | 0.00 | 0.00 | 0.00 | 84 | 1016.0 |
| 20260510145938 | 73 | 158 | 2.0 | 0.0 | 0.00 | 0.00 | 0.00 | 83 | 1016.1 |
| 20260510145509 | 72 | 180 | 2.0 | 0.0 | 0.00 | 0.00 | 0.00 | 84 | 1016.2 |
| 20260510144610 | 70 | 90 | 4.0 | 0.0 | 0.00 | 0.00 | 0.00 | 85 | 1016.4 |
| 20260510144141 | 69 | 112 | 5.0 | 0.0 | 0.00 | 0.00 | 0.00 | 86 | 1016.4 |
| 20260510143711 | 69 | 112 | 4.0 | 0.0 | 0.00 | 0.00 | 0.00 | 86 | 1016.5 |
| 20260510142811 | 70 | 112 | 2.0 | 0.0 | 0.00 | 0.00 | 0.00 | 86 | 1016.3 |
| 20260510142342 | 68 | 45 | 2.0 | 0.0 | 0.00 | 0.00 | 0.00 | 88 | 1016.6 |
| 20260510141913 | 67 | 315 | 2.0 | 0.0 | 0.00 | 0.00 | 0.00 | 89 | 1016.6 |
| 20260510141444 | 66 | 112 | 4.0 | 0.0 | 0.00 | 0.00 | 0.00 | 90 | 1016.7 |
| 20260510141015 | 65 | 112 | 4.0 | 0.0 | 0.00 | 0.00 | 0.00 | 92 | 1016.8 |
| 20260510140547 | 64 | 112 | 4.0 | 0.0 | 0.00 | 0.00 | 0.00 | 92 | 1016.8 |
| 20260510140012 | 64 | 135 | 3.0 | 0.0 | 0.00 | 0.00 | 0.00 | 93 | 1016.9 |
| 20260510135543 | 63 | 112 | 4.0 | 0.0 | 0.00 | 0.00 | 0.00 | 93 | 1017.0 |
| 20260510135021 | 63 | 112 | 0.0 | 0.0 | 0.00 | 0.00 | 0.00 | 93 | 1017.0 |
| 20260510134553 | 63 | 135 | 3.0 | 0.0 | 0.00 | 0.00 | 0.00 | 92 | 1016.9 |
| 20260510134124 | 63 | 68 | 3.0 | 0.0 | 0.00 | 0.00 | 0.00 | 91 | 1016.7 |
| 20260510133656 | 64 | 90 | 4.0 | 0.0 | 0.00 | 0.00 | 0.00 | 91 | 1016.6 |
| 20260510133227 | 64 | 202 | 0.0 | 0.0 | 0.00 | 0.00 | 0.00 | 93 | 1016.5 |
| 20260510132330 | 63 | 158 | 0.0 | 0.0 | 0.00 | 0.00 | 0.00 | 94 | 1016.6 |
| 20260510131923 | 63 | 135 | 0.0 | 0.0 | 0.00 | 0.00 | 0.00 | 94 | 1016.7 |
| 20260510131353 | 62 | 180 | 0.0 | 0.0 | 0.00 | 0.00 | 0.00 | 95 | 1016.7 |
| 20260510130925 | 61 | 112 | 0.0 | 0.0 | 0.00 | 0.00 | 0.00 | 95 | 1016.8 |
| 20260510130456 | 61 | 135 | 0.0 | 0.0 | 0.00 | 0.00 | 0.00 | 96 | 1016.7 |
| 20260510130028 | 61 | 112 | 0.0 | 0.0 | 0.00 | 0.00 | 0.00 | 97 | 1016.7 |
| 20260510125600 | 61 | 158 | 0.0 | 0.0 | 0.00 | 0.00 | 0.00 | 97 | 1016.7 |
| 20260510125132 | 61 | 90 | 0.0 | 0.0 | 0.00 | 0.00 | 0.00 | 97 | 1016.7 |
| 20260510124703 | 60 | 180 | 0.0 | 0.0 | 0.00 | 0.00 | 0.00 | 97 | 1016.7 |
| 20260510124235 | 60 | 158 | 0.0 | 0.0 | 0.00 | 0.00 | 0.00 | 97 | 1016.5 |
| 20260510123808 | 60 | 45 | 0.0 | 0.0 | 0.00 | 0.00 | 0.00 | 97 | 1016.4 |
| 20260510123337 | 60 | 158 | 0.0 | 0.0 | 0.00 | 0.00 | 0.00 | 97 | 1016.5 |
| 20260510122908 | 59 | 135 | 0.0 | 0.0 | 0.00 | 0.00 | 0.00 | 97 | 1016.5 |
| 20260510122438 | 59 | 112 | 0.0 | 0.0 | 0.00 | 0.00 | 0.00 | 97 | 1016.4 |
| 20260510122010 | 59 | 112 | 1.0 | 0.0 | 0.00 | 0.00 | 0.00 | 97 | 1016.5 |
| 20260510121051 | 58 | 45 | 4.0 | 0.0 | 0.00 | 0.00 | 0.00 | 97 | 1016.4 |
| 20260510120621 | 58 | 135 | 3.0 | 0.0 | 0.00 | 0.00 | 0.00 | 97 | 1016.3 |
| 20260510120153 | 58 | 112 | 2.0 | 0.0 | 0.00 | 0.00 | 0.00 | 97 | 1016.2 |
| 20260510115724 | 58 | 68 | 4.0 | 0.0 | 0.00 | 0.00 | 0.00 | 97 | 1016.1 |
| 20260510114806 | 58 | 45 | 4.0 | 0.0 | 0.00 | 0.00 | 0.00 | 97 | 1015.9 |
| 20260510113442 | 58 | 112 | 4.0 | 0.0 | 0.00 | 0.00 | 0.00 | 97 | 1015.8 |
| 20260510113014 | 58 | 112 | 2.0 | 0.0 | 0.00 | 0.00 | 0.00 | 97 | 1015.8 |
| 20260510112118 | 58 | 112 | 5.0 | 0.0 | 0.00 | 0.00 | 0.00 | 97 | 1015.6 |
| 20260510110754 | 59 | 112 | 0.0 | 0.0 | 0.00 | 0.00 | 0.00 | 97 | 1015.3 |
| 20260510110326 | 59 | 112 | 0.0 | 0.0 | 0.00 | 0.00 | 0.00 | 97 | 1015.2 |
| 20260510105858 | 59 | 135 | 0.0 | 0.0 | 0.00 | 0.00 | 0.00 | 97 | 1015.2 |
| 20260510105002 | 59 | 90 | 0.0 | 0.0 | 0.00 | 0.00 | 0.00 | 97 | 1015.0 |
| 20260510104834 | 0 | 112 | 0.0 | 0.0 | 0.00 | 0.00 | 0.00 | 97 | 1014.8 |
| 20260510104234 | 58 | 180 | 0.0 | 0.0 | 0.00 | 0.00 | 0.00 | 96 | 1014.8 |
| 20260510103506 | 58 | 135 | 0.0 | 0.0 | 0.00 | 0.00 | 0.00 | 96 | 1014.8 |
| 20260510103338 | 0 | 180 | 0.0 | 0.0 | 0.00 | 0.00 | 0.00 | 96 | 1014.7 |
| 20260510102738 | 59 | 158 | 0.0 | 0.0 | 0.00 | 0.00 | 0.00 | 96 | 1014.7 |
| 20260510102611 | 0 | 112 | 0.0 | 0.0 | 0.00 | 0.00 | 0.00 | 96 | 1014.7 |
| 20260510102011 | 57 | 158 | 0.0 | 0.0 | 0.00 | 0.00 | 0.00 | 95 | 1014.7 |
| 20260510101842 | 0 | 158 | 0.0 | 0.0 | 0.00 | 0.00 | 0.00 | 95 | 1014.7 |
| 20260510101243 | 57 | 180 | 0.0 | 0.0 | 0.00 | 0.00 | 0.00 | 95 | 1014.7 |
| 20260510101115 | 0 | 180 | 0.0 | 0.0 | 0.00 | 0.00 | 0.00 | 95 | 1014.6 |
| 20260510100515 | 57 | 180 | 0.0 | 0.0 | 0.00 | 0.00 | 0.00 | 95 | 1014.6 |
| 20260510095747 | 57 | 202 | 0.0 | 0.0 | 0.00 | 0.00 | 0.00 | 95 | 1014.6 |
| 20260510095620 | 0 | 202 | 0.0 | 0.0 | 0.00 | 0.00 | 0.00 | 95 | 1014.5 |
| 20260510095020 | 57 | 180 | 0.0 | 0.0 | 0.00 | 0.00 | 0.00 | 95 | 1014.5 |
| 20260510094852 | 0 | 180 | 0.0 | 0.0 | 0.00 | 0.00 | 0.00 | 95 | 1014.4 |
| 20260510094252 | 58 | 180 | 0.0 | 0.0 | 0.00 | 0.00 | 0.00 | 96 | 1014.4 |
| 20260510094125 | 0 | 180 | 0.0 | 0.0 | 0.00 | 0.00 | 0.00 | 96 | 1014.4 |
| 20260510093525 | 58 | 158 | 0.0 | 0.0 | 0.00 | 0.00 | 0.00 | 96 | 1014.4 |
| 20260510092757 | 58 | 202 | 0.0 | 0.0 | 0.00 | 0.00 | 0.00 | 96 | 1014.4 |
| 20260510092627 | 0 | 202 | 0.0 | 0.0 | 0.00 | 0.00 | 0.00 | 96 | 1014.4 |
| 20260510092027 | 58 | 180 | 0.0 | 0.0 | 0.00 | 0.00 | 0.00 | 96 | 1014.4 |
| 20260510091300 | 58 | 202 | 0.0 | 0.0 | 0.00 | 0.00 | 0.00 | 96 | 1014.6 |
| 20260510091133 | 0 | 202 | 0.0 | 0.0 | 0.00 | 0.00 | 0.00 | 96 | 1014.5 |
| 20260510090534 | 59 | 225 | 0.0 | 0.0 | 0.00 | 0.00 | 0.00 | 96 | 1014.5 |
| 20260510090406 | 0 | 248 | 0.0 | 0.0 | 0.00 | 0.00 | 0.00 | 96 | 1014.4 |
| 20260510085639 | 0 | 225 | 0.0 | 0.0 | 0.00 | 0.00 | 0.00 | 96 | 1014.3 |
| 20260510084912 | 0 | 225 | 0.0 | 0.0 | 0.00 | 0.00 | 0.00 | 96 | 1014.1 |
| 20260510084312 | 59 | 112 | 0.0 | 0.0 | 0.00 | 0.00 | 0.00 | 96 | 1014.1 |
| 20260510084145 | 0 | 225 | 0.0 | 0.0 | 0.00 | 0.00 | 0.00 | 96 | |
| 20260510083545 | 59 | 202 | 0.0 | 0.0 | 0.00 | 0.00 | 0.00 | 96 | 1013.8 |
| 20260510083418 | 0 | 202 | 0.0 | 0.0 | 0.00 | 0.00 | 0.00 | 96 | 1013.8 |
| 20260510082817 | 59 | 225 | 0.0 | 0.0 | 0.00 | 0.00 | 0.00 | 96 | 1013.8 |
| 20260510082050 | 59 | 248 | 0.0 | 0.0 | 0.00 | 0.00 | 0.00 | 96 | 1013.6 |
| 20260510081923 | 0 | 270 | 0.0 | 0.0 | 0.00 | 0.00 | 0.00 | 96 | 1013.6 |
| 20260510080555 | 60 | 292 | 0.0 | 0.0 | 0.00 | 0.00 | 0.00 | 96 | 1013.4 |
| 20260510080428 | 0 | 292 | 0.0 | 0.0 | 0.00 | 0.00 | 0.00 | 96 | 1013.2 |
| 20260510075828 | 60 | 292 | 0.0 | 0.0 | 0.00 | 0.00 | 0.00 | 96 | 1013.2 |
| 20260510075700 | 0 | 248 | 0.0 | 0.0 | 0.00 | 0.00 | 0.00 | 96 | 1013.3 |
| 20260510075100 | 60 | 248 | 0.0 | 0.0 | 0.00 | 0.00 | 0.00 | 96 | 1013.3 |
| 20260510074334 | 61 | 270 | 0.0 | 0.0 | 0.00 | 0.00 | 0.00 | 96 | 1013.3 |
| 20260510073606 | 61 | 225 | 0.0 | 0.0 | 0.00 | 0.00 | 0.00 | 95 | 1013.1 |
| 20260510072840 | 60 | 270 | 1.0 | 0.0 | 0.00 | 0.00 | 0.00 | 95 | 1013.3 |
| 20260510072713 | 0 | 180 | 0.0 | 0.0 | 0.00 | 0.00 | 0.00 | 95 | 1013.4 |
| 20260510072113 | 60 | 202 | 0.0 | 0.0 | 0.00 | 0.00 | 0.00 | 95 | 1013.4 |
| 20260510071947 | 0 | 270 | 0.0 | 0.0 | 0.00 | 0.00 | 0.00 | 95 | 1013.4 |
| 20260510071347 | 60 | 180 | 0.0 | 0.0 | 0.00 | 0.00 | 0.00 | 95 | 1013.4 |
| 20260510071220 | 0 | 180 | 0.0 | 0.0 | 0.00 | 0.00 | 0.00 | 95 | 1013.4 |
| 20260510070620 | 60 | 90 | 0.0 | 0.0 | 0.00 | 0.00 | 0.00 | 95 | 1013.4 |
| 20260510070453 | 0 | 45 | 0.0 | 0.0 | 0.00 | 0.00 | 0.00 | 95 | 1013.3 |
| 20260510065853 | 60 | 45 | 0.0 | 0.0 | 0.00 | 0.00 | 0.00 | 94 | 1013.3 |
| 20260510065726 | 0 | 22 | 0.0 | 0.0 | 0.00 | 0.00 | 0.00 | 94 | 1013.4 |
| 20260510065127 | 60 | 248 | 0.0 | 0.0 | 0.00 | 0.00 | 0.00 | 94 | 1013.4 |
| 20260510065000 | 0 | 248 | 0.0 | 0.0 | 0.00 | 0.00 | 0.00 | 94 | 1013.3 |
| 20260510064401 | 60 | 68 | 0.0 | 0.0 | 0.00 | 0.00 | 0.00 | 93 | 1013.3 |
| 20260510064234 | 0 | 90 | 0.0 | 0.0 | 0.00 | 0.00 | 0.00 | 93 | |
| 20260510063633 | 60 | 45 | 0.0 | 0.0 | 0.00 | 0.00 | 0.00 | 93 | 1013.3 |
| 20260510063508 | 0 | 45 | 0.0 | 0.0 | 0.00 | 0.00 | 0.00 | 93 | 1013.3 |
| 20260510062908 | 60 | 112 | 0.0 | 0.0 | 0.00 | 0.00 | 0.00 | 93 | 1013.3 |
| 20260510062741 | 0 | 135 | 0.0 | 0.0 | 0.00 | 0.00 | 0.00 | 93 | 1013.3 |
| 20260510062142 | 61 | 338 | 0.0 | 0.0 | 0.00 | 0.00 | 0.00 | 93 | 1013.3 |
| 20260510062015 | 0 | 338 | 0.0 | 0.0 | 0.00 | 0.00 | 0.00 | 93 | 1013.3 |
| 20260510061415 | 62 | 90 | 0.0 | 0.0 | 0.00 | 0.00 | 0.00 | 93 | 1013.3 |
| 20260510061249 | 0 | 135 | 0.0 | 0.0 | 0.00 | 0.00 | 0.00 | 93 | 1013.2 |
| 20260510060649 | 62 | 90 | 2.0 | 0.0 | 0.00 | 0.00 | 0.00 | 93 | 1013.2 |
| 20260510060420 | 0 | 180 | 4.0 | 0.0 | 0.00 | 0.00 | 0.00 | 93 | 1013.3 |
| 20260510055820 | 63 | 112 | 4.0 | 0.0 | 0.00 | 0.00 | 0.00 | 93 | 1013.3 |
| 20260510055654 | 0 | 135 | 3.0 | 0.0 | 0.00 | 0.00 | 0.00 | 93 | 1013.4 |
| 20260510055054 | 63 | 90 | 4.0 | 0.0 | 0.00 | 0.00 | 0.00 | 92 | 1013.4 |
| 20260510054928 | 0 | 158 | 2.0 | 0.0 | 0.00 | 0.00 | 0.00 | 91 | 1013.3 |
| 20260510054328 | 63 | 135 | 0.0 | 0.0 | 0.00 | 0.00 | 0.00 | 90 | 1013.3 |
| 20260510054202 | 0 | 90 | 0.0 | 0.0 | 0.00 | 0.00 | 0.00 | 90 | 1013.1 |
| 20260510053602 | 64 | 68 | 0.0 | 0.0 | 0.00 | 0.00 | 0.00 | 90 | 1013.1 |
| 20260510052836 | 64 | 315 | 2.0 | 0.0 | 0.00 | 0.00 | 0.00 | 90 | 1013.1 |
| 20260510052710 | 0 | 270 | 3.0 | 0.0 | 0.00 | 0.00 | 0.00 | 90 | 1013.2 |
| 20260510052110 | 64 | 270 | 0.0 | 0.0 | 0.00 | 0.00 | 0.00 | 90 | 1013.2 |
| 20260510051944 | 0 | 248 | 2.0 | 0.0 | 0.00 | 0.00 | 0.00 | 90 | |
| 20260510051344 | 64 | 270 | 2.0 | 0.0 | 0.00 | 0.00 | 0.00 | 90 | 1013.2 |
| 20260510050352 | 0 | 248 | 2.0 | 0.0 | 0.00 | 0.00 | 0.00 | 89 | 1013.1 |
| 20260510045752 | 65 | 270 | 3.0 | 0.0 | 0.00 | 0.00 | 0.00 | 89 | 1013.1 |
| 20260510045626 | 0 | 225 | 2.0 | 0.0 | 0.00 | 0.00 | 0.00 | 89 | |
| 20260510045026 | 65 | 248 | 2.0 | 0.0 | 0.00 | 0.00 | 0.00 | 89 | 1013.1 |
| 20260510044901 | 0 | 248 | 3.0 | 0.0 | 0.00 | 0.00 | 0.00 | 89 | |
| 20260510044301 | 65 | 270 | 3.0 | 0.0 | 0.00 | 0.00 | 0.00 | 89 | 1013.2 |
| 20260510044134 | 0 | 270 | 3.0 | 0.0 | 0.00 | 0.00 | 0.00 | 88 | 1013.2 |
| 20260510043534 | 65 | 225 | 2.0 | 0.0 | 0.00 | 0.00 | 0.00 | 88 | 1013.2 |
| 20260510042809 | 65 | 270 | 4.0 | 0.0 | 0.00 | 0.00 | 0.00 | 88 | 1013.3 |
| 20260510042053 | 65 | 248 | 5.0 | 0.0 | 0.00 | 0.00 | 0.00 | 88 | 1013.3 |
| 20260510041318 | 65 | 270 | 3.0 | 0.0 | 0.00 | 0.00 | 0.00 | 88 | 1013.3 |
| 20260510040553 | 66 | 270 | 5.0 | 0.0 | 0.00 | 0.00 | 0.00 | 1013.3 | |
| 20260510035711 | 0 | 0.0 | 0.0 | 0.00 | 0.00 | 0.00 | |||
| 20260510035114 | 65 | 292 | 5.0 | 0.0 | 0.00 | 0.00 | 0.00 | 90 | 1013.2 |
| 20260510034939 | 0 | 180 | 2.0 | 0.0 | 0.00 | 0.00 | 0.00 | 90 | |
| 20260510034218 | 0 | 22 | 3.0 | 0.0 | 0.00 | 0.00 | 0.00 | 90 | |
| 20260510033447 | 64 | 112 | 3.0 | 0.0 | 0.00 | 0.00 | 0.00 | 90 | |
| 20260510032847 | 64 | 112 | 0.0 | 0.0 | 0.00 | 0.00 | 0.00 | 90 | 1013.5 |
| 20260510032121 | 65 | 90 | 3.0 | 0.0 | 0.00 | 0.00 | 0.00 | 89 | 1013.4 |
| 20260510031956 | 0 | 112 | 2.0 | 0.0 | 0.00 | 0.00 | 0.00 | 89 | |
| 20260510031356 | 65 | 180 | 0.0 | 0.0 | 0.00 | 0.00 | 0.00 | 89 | 1013.3 |
| 20260510030631 | 64 | 135 | 2.0 | 0.0 | 0.00 | 0.00 | 0.00 | 89 | 1013.3 |
| 20260510030506 | 0 | 202 | 3.0 | 0.0 | 0.00 | 0.00 | 0.00 | 89 | |
| 20260510025906 | 65 | 0 | 3.0 | 0.0 | 0.00 | 0.00 | 0.00 | 88 | 1013.2 |
| 20260510025107 | 65 | 135 | 0.0 | 0.0 | 0.00 | 0.00 | 0.00 | 88 | 1013.2 |
| 20260510024941 | 65 | 68 | 0.0 | 0.0 | 0.00 | 0.00 | 0.00 | 88 | |
| 20260510024341 | 65 | 112 | 0.0 | 0.0 | 0.00 | 0.00 | 0.00 | 87 | 1013.0 |
| 20260510024221 | 65 | 90 | 0.0 | 0.0 | 0.00 | 0.00 | 0.00 | 87 | |
| 20260510023621 | 65 | 315 | 0.0 | 0.0 | 0.00 | 0.00 | 0.00 | 87 | 1012.9 |
| 20260510023400 | 0 | 270 | 0.0 | 0.0 | 0.00 | 0.00 | 0.00 | 87 | |
| 20260510022800 | 65 | 112 | 2.0 | 0.0 | 0.00 | 0.00 | 0.00 | 87 | 1012.8 |
| 20260510022034 | 66 | 68 | 0.0 | 0.0 | 0.00 | 0.00 | 0.00 | 86 | 1012.6 |
| 20260510021909 | 66 | 180 | 0.0 | 0.0 | 0.00 | 0.00 | 0.00 | 86 | |
| 20260510021309 | 66 | 158 | 3.0 | 0.0 | 0.00 | 0.00 | 0.00 | 86 | 1012.3 |
| 20260510021144 | 0 | 158 | 3.0 | 0.0 | 0.00 | 0.00 | 0.00 | 86 | |
| 20260510020544 | 66 | 112 | 0.0 | 0.0 | 0.00 | 0.00 | 0.00 | 85 | 1012.2 |
| 20260510020448 | 66 | 112 | 0.0 | 0.0 | 0.00 | 0.00 | 0.00 | 85 | |
| 20260510015848 | 66 | 112 | 2.0 | 0.0 | 0.00 | 0.00 | 0.00 | 85 | 1011.9 |
| 20260510015634 | 0 | 338 | 2.0 | 0.0 | 0.00 | 0.00 | 0.00 | 85 | |
| 20260510015034 | 66 | 180 | 3.0 | 0.0 | 0.00 | 0.00 | 0.00 | 85 | 1011.9 |
| 20260510014309 | 66 | 135 | 3.0 | 0.0 | 0.00 | 0.00 | 0.00 | 85 | 1011.8 |
| 20260510014144 | 0 | 135 | 0.0 | 0.0 | 0.00 | 0.00 | 0.00 | 85 | |
| 20260510013543 | 0 | 202 | 0.0 | 0.0 | 0.00 | 0.00 | 0.00 | 84 | |
| 20260510013450 | 66 | 158 | 0.0 | 0.0 | 0.00 | 0.00 | 0.00 | 84 | 1011.8 |
| 20260510013147 | 66 | 112 | 0.0 | 0.0 | 0.00 | 0.00 | 0.00 | 83 | |
| 20260510012424 | 0 | 135 | 0.0 | 0.0 | 0.00 | 0.00 | 0.00 | 82 | |
| 20260510011059 | 67 | 90 | 0.0 | 0.0 | 0.00 | 0.00 | 0.00 | 81 | 1011.2 |
| 20260510010935 | 0 | 90 | 0.0 | 0.0 | 0.00 | 0.00 | 0.00 | 81 | |
| 20260510010335 | 68 | 112 | 3.0 | 0.0 | 0.00 | 0.00 | 0.00 | 80 | 1011.2 |
| 20260510010210 | 0 | 112 | 3.0 | 0.0 | 0.00 | 0.00 | 0.00 | 80 | |
| 20260510005610 | 68 | 112 | 2.0 | 0.0 | 0.00 | 0.00 | 0.00 | 79 | 1011.0 |
| 20260510005445 | 68 | 338 | 3.0 | 0.0 | 0.00 | 0.00 | 0.00 | 79 | |
| 20260510004845 | 68 | 112 | 4.0 | 0.0 | 0.00 | 0.00 | 0.00 | 78 | 1011.0 |
| 20260510004721 | 68 | 112 | 1.0 | 0.0 | 0.00 | 0.00 | 0.00 | 78 | |
| 20260510003657 | 68 | 112 | 0.0 | 0.0 | 0.00 | 0.00 | 0.00 | 77 | 1010.7 |
| 20260510003233 | 68 | 225 | 0.0 | 0.0 | 0.00 | 0.00 | 0.00 | 77 | 1010.6 |
| 20260510002810 | 69 | 248 | 0.0 | 0.0 | 0.00 | 0.00 | 0.00 | 76 | 1010.5 |
| 20260510002345 | 69 | 248 | 0.0 | 0.0 | 0.00 | 0.00 | 0.00 | 75 | 1010.6 |
| 20260510001921 | 69 | 158 | 0.0 | 0.0 | 0.00 | 0.00 | 0.00 | 75 | 1010.4 |
| 20260510001457 | 69 | 292 | 0.0 | 0.0 | 0.00 | 0.00 | 0.00 | 75 | 1010.4 |
| 20260510001033 | 69 | 270 | 0.0 | 0.0 | 0.00 | 0.00 | 0.00 | 74 | 1010.3 |
| 20260510000607 | 69 | 270 | 0.0 | 0.0 | 0.00 | 0.00 | 0.00 | 74 | 1010.3 |
| 20260510000143 | 69 | 270 | 0.0 | 0.0 | 0.00 | 0.00 | 0.00 | 74 | 1010.4 |
| 20260509235434 | 70 | 270 | 0.0 | 0.0 | 0.00 | 0.00 | 0.00 | 74 | 1010.2 |
| 20260509235114 | 70 | 270 | 0.0 | 0.0 | 0.00 | 0.00 | 0.00 | 76 | 1010.1 |
| 20260509234754 | 70 | 270 | 0.0 | 0.0 | 0.00 | 0.00 | 0.00 | 76 | 1010.1 |
| 20260509233432 | 72 | 248 | 0.0 | 0.0 | 0.00 | 0.00 | 0.00 | 76 | 1009.7 |
| 20260509233112 | 72 | 90 | 0.0 | 0.0 | 0.00 | 0.00 | 0.00 | 76 | 1009.8 |
| 20260509232751 | 72 | 248 | 0.0 | 0.0 | 0.00 | 0.00 | 0.00 | 76 | 1010.1 |
| 20260509232256 | 72 | 270 | 0.0 | 0.0 | 0.00 | 0.00 | 0.00 | 74 | 1010.0 |
| 20260509231936 | 72 | 270 | 0.0 | 0.0 | 0.00 | 0.00 | 0.00 | 74 | 1010.1 |
| 20260509231615 | 72 | 292 | 2.0 | 0.0 | 0.00 | 0.00 | 0.00 | 74 | 1010.1 |
| 20260509231256 | 72 | 248 | 0.0 | 0.0 | 0.00 | 0.00 | 0.00 | 72 | 1010.0 |
| 20260509231214 | 0 | 270 | 0.0 | 0.0 | 0.00 | 0.00 | 0.00 | 72 | |
| 20260509230614 | 73 | 270 | 0.0 | 0.0 | 0.00 | 0.00 | 0.00 | 68 | 1009.9 |
| 20260509230254 | 73 | 270 | 0.0 | 0.0 | 0.00 | 0.00 | 0.00 | 68 | 1009.8 |
| 20260509225933 | 73 | 270 | 0.0 | 0.0 | 0.00 | 0.00 | 0.00 | 67 | 1009.9 |
| 20260509225612 | 74 | 248 | 0.0 | 0.0 | 0.00 | 0.00 | 0.00 | 63 | 1009.7 |